,,Stat6,,Stat2,,Stat8,,Stat9,,Stat10,,Wind1,,Wind1,
time,status,PA1M_AVG,status,PR1M_SUM,status,RH1M_AVG,status,SR1M_AVG,status,TA1M_AVG,status,W1dAve1m,status,W1sAve1m,
2008-03-17, 00:00:00,VALID,915.052,VALID,0,VALID,99.1139,VALID,0.0509425,VALID,20.1561,VALID,94,VALID,0.652344,
2008-03-17, 00:01:00,VALID,915.039,VALID,0,VALID,99.1216,VALID,-0.0339617,VALID,20.1141,VALID,107,VALID,0.849144,
2008-03-17, 00:02:00,VALID,915.037,VALID,0,VALID,99.208,VALID,0,VALID,20.0777,VALID,114,VALID,0.953125,
2008-03-17, 00:03:00,VALID,915.035,VALID,0,VALID,99.3746,VALID,0.0169808,VALID,20.0293,VALID,115,VALID,1.10556,
2008-03-17, 00:04:00,VALID,915.041,VALID,0,VALID,99.7065,VALID,0.0169808,VALID,20.0003,VALID,126,VALID,1.26277,
2008-03-17, 00:05:00,VALID,915.035,VALID,0,VALID,99.9438,VALID,0.0339617,VALID,19.9803,VALID,138,VALID,1.27859,
2008-03-17, 00:06:00,VALID,915.029,VALID,0,VALID,100,VALID,0.0339617,VALID,19.9736,VALID,121,VALID,1.14524,
2008-03-17, 00:07:00,VALID,915.034,VALID,0,VALID,100,VALID,0.0169808,VALID,19.9941,VALID,128,VALID,1.22202,
2008-03-17, 00:08:00,VALID,915.019,VALID,0,VALID,100,VALID,0,VALID,19.9811,VALID,140,VALID,1.1508,
2008-03-17, 00:09:00,VALID,915.025,VALID,0,VALID,100,VALID,0,VALID,19.9609,VALID,143,VALID,1.10121,
2008-03-17, 00:10:00,VALID,915.005,VALID,0,VALID,100,VALID,0,VALID,19.9614,VALID,150,VALID,1.31176,
2008-03-17, 00:11:00,VALID,914.981,VALID,0,VALID,100,VALID,0,VALID,19.9846,VALID,135,VALID,1.27949,
2008-03-17, 00:12:00,VALID,914.974,VALID,0,VALID,100,VALID,0,VALID,19.9868,VALID,124,VALID,0.869368,
2008-03-17, 00:13:00,VALID,914.959,VALID,0,VALID,100,VALID,0.0169808,VALID,20.0138,VALID,134,VALID,1.39099,
2008-03-17, 00:14:00,VALID,914.949,VALID,0,VALID,100,VALID,0,VALID,20.0295,VALID,135,VALID,1.21112,
2008-03-17, 00:15:00,VALID,914.923,VALID,0,VALID,100,VALID,0,VALID,20.0485,VALID,144,VALID,0.526634,
2008-03-17, 00:16:00,VALID,914.912,VALID,0,VALID,100,VALID,-0.0169808,VALID,20.0552,VALID,131,VALID,0.702009,
2008-03-17, 00:17:00,VALID,914.898,VALID,0,VALID,100,VALID,0.0169808,VALID,20.0649,VALID,129,VALID,0.914244,
2008-03-17, 00:18:00,VALID,914.891,VALID,0,VALID,100,VALID,0,VALID,20.0907,VALID,130,VALID,0.616616,
2008-03-17, 00:19:00,VALID,914.888,VALID,0,VALID,100,VALID,0,VALID,20.1134,VALID,140,VALID,0.504084,
2008-03-17, 00:20:00,VALID,914.89,VALID,0,VALID,100,VALID,0.0509425,VALID,20.1323,VALID,124,VALID,0.24272,
2008-03-17, 00:21:00,VALID,914.882,VALID,0,VALID,100,VALID,0.0509425,VALID,20.1523,VALID,123,VALID,0,
2008-03-17, 00:22:00,VALID,914.893,VALID,0,VALID,99.9931,VALID,0.0169808,VALID,20.1653,VALID,123,VALID,0,
2008-03-17, 00:23:00,VALID,914.881,VALID,0,VALID,99.9941,VALID,0.0679233,VALID,20.175,VALID,123,VALID,0,
2008-03-17, 00:24:00,VALID,914.881,VALID,0,VALID,99.9916,VALID,0.0339617,VALID,20.1945,VALID,123,VALID,0,
2008-03-17, 00:25:00,VALID,914.876,VALID,0,VALID,99.9771,VALID,-0.0169808,VALID,20.218,VALID,123,VALID,0,
2008-03-17, 00:26:00,VALID,914.872,VALID,0,VALID,99.9735,VALID,0.0169808,VALID,20.228,VALID,123,VALID,0,
2008-03-17, 00:27:00,VALID,914.862,VALID,0,VALID,99.9855,VALID,0.0339617,VALID,20.2267,VALID,122,VALID,0,
2008-03-17, 00:28:00,VALID,914.863,VALID,0,VALID,99.8197,VALID,0,VALID,20.2337,VALID,350,VALID,0,
2008-03-17, 00:29:00,VALID,914.842,VALID,0,VALID,99.8044,VALID,0,VALID,20.2042,VALID,346,VALID,0,
2008-03-17, 00:30:00,VALID,914.843,VALID,0,VALID,99.8833,VALID,0.0169808,VALID,20.191,VALID,346,VALID,0,
2008-03-17, 00:31:00,VALID,914.837,VALID,0,VALID,100,VALID,0,VALID,20.185,VALID,335,VALID,0,
2008-03-17, 00:32:00,VALID,914.829,VALID,0,VALID,100,VALID,0,VALID,20.1788,VALID,335,VALID,0,
2008-03-17, 00:33:00,VALID,914.814,VALID,0,VALID,100,VALID,0,VALID,20.1553,INVALID,360,VALID,0,
2008-03-17, 00:34:00,VALID,914.811,VALID,0,VALID,100,VALID,0,VALID,20.1228,INVALID,360,VALID,0,
2008-03-17, 00:35:00,VALID,914.8,VALID,0,VALID,100,VALID,0.0169808,VALID,20.1263,INVALID,360,VALID,0,
2008-03-17, 00:36:00,VALID,914.788,VALID,0,VALID,100,VALID,0,VALID,20.1366,INVALID,360,VALID,0,
2008-03-17, 00:37:00,VALID,914.771,VALID,0,VALID,100,VALID,0.0169808,VALID,20.1331,INVALID,360,VALID,0,
2008-03-17, 00:38:00,VALID,914.745,VALID,0,VALID,100,VALID,0,VALID,20.1458,INVALID,360,VALID,0,
2008-03-17, 00:39:00,VALID,914.72,VALID,0,VALID,100,VALID,0.0169808,VALID,20.1458,INVALID,360,VALID,0,
2008-03-17, 00:40:00,VALID,914.702,VALID,0,VALID,100,VALID,0,VALID,20.1558,INVALID,360,VALID,0,
2008-03-17, 00:41:00,VALID,914.709,VALID,0,VALID,100,VALID,0.0169808,VALID,20.1593,INVALID,360,VALID,0,
2008-03-17, 00:42:00,VALID,914.708,VALID,0,VALID,100,VALID,0,VALID,20.1558,INVALID,360,VALID,0,
2008-03-17, 00:43:00,VALID,914.708,VALID,0,VALID,100,VALID,0.0339617,VALID,20.162,VALID,336,VALID,0,
2008-03-17, 00:44:00,VALID,914.713,VALID,0,VALID,100,VALID,0,VALID,20.185,VALID,131,VALID,0,
2008-03-17, 00:45:00,VALID,914.707,VALID,0,VALID,100,VALID,0.0169808,VALID,20.1715,VALID,133,VALID,0,
2008-03-17, 00:46:00,VALID,914.695,VALID,0,VALID,100,VALID,0,VALID,20.1588,VALID,126,VALID,0,
2008-03-17, 00:47:00,VALID,914.696,VALID,0,VALID,100,VALID,0,VALID,20.1748,VALID,133,VALID,0.848474,
2008-03-17, 00:48:00,VALID,914.686,VALID,0,VALID,100,VALID,-0.0169808,VALID,20.2145,VALID,133,VALID,1.10597,
2008-03-17, 00:49:00,VALID,914.668,VALID,0,VALID,100,VALID,-0.101885,VALID,20.2414,VALID,146,VALID,0.368676,
2008-03-17, 00:50:00,VALID,914.652,VALID,0,VALID,99.968,VALID,-0.0849042,VALID,20.2547,VALID,145,VALID,0,
2008-03-17, 00:51:00,VALID,914.642,VALID,0,VALID,99.9189,VALID,-0.0679233,VALID,20.2674,VALID,153,VALID,0.183966,
2008-03-17, 00:52:00,VALID,914.636,VALID,0,VALID,99.8578,VALID,-0.101885,VALID,20.2812,VALID,166,VALID,0.717578,
2008-03-17, 00:53:00,VALID,914.636,VALID,0,VALID,99.7892,VALID,-0.0849042,VALID,20.2774,VALID,166,VALID,0.270117,
2008-03-17, 00:54:00,VALID,914.619,VALID,0,VALID,99.7637,VALID,-0.101885,VALID,20.2906,VALID,166,VALID,0,
2008-03-17, 00:55:00,VALID,914.595,VALID,0,VALID,99.7027,VALID,-0.0509425,VALID,20.2869,VALID,167,VALID,0,
2008-03-17, 00:56:00,VALID,914.6,VALID,0,VALID,99.69,VALID,-0.0849042,VALID,20.2806,VALID,167,VALID,0,
2008-03-17, 00:57:00,VALID,914.604,VALID,0,VALID,99.7205,VALID,-0.0679233,VALID,20.2771,VALID,162,VALID,0,
2008-03-17, 00:58:00,VALID,914.587,VALID,0,VALID,99.704,VALID,-0.0849042,VALID,20.2707,VALID,165,VALID,0.0554315,
2008-03-17, 00:59:00,VALID,914.58,VALID,0,VALID,99.6607,VALID,-0.0849042,VALID,20.2639,VALID,162,VALID,0,
2008-03-17, 01:00:00,VALID,914.583,VALID,0,VALID,99.5857,VALID,-0.0169808,VALID,20.2806,VALID,162,VALID,0.761814,
2008-03-17, 01:01:00,VALID,914.57,VALID,0,VALID,99.4916,VALID,-0.0849042,VALID,20.2871,VALID,158,VALID,1.11223,
2008-03-17, 01:02:00,VALID,914.564,VALID,0,VALID,99.4395,VALID,-0.0679233,VALID,20.2966,VALID,159,VALID,0.884146,
2008-03-17, 01:03:00,VALID,914.554,VALID,0,VALID,99.3873,VALID,-0.0509425,VALID,20.3058,VALID,164,VALID,0.649023,
2008-03-17, 01:04:00,VALID,914.546,VALID,0,VALID,99.3187,VALID,0.0169808,VALID,20.3046,VALID,165,VALID,0.160714,
2008-03-17, 01:05:00,VALID,914.54,VALID,0,VALID,99.2729,VALID,0.0169808,VALID,20.3081,VALID,159,VALID,0,
2008-03-17, 01:06:00,VALID,914.517,VALID,0,VALID,99.2233,VALID,0.0339617,VALID,20.3148,VALID,157,VALID,0,
2008-03-17, 01:07:00,VALID,914.513,VALID,0,VALID,99.2093,VALID,0.0339617,VALID,20.3078,VALID,156,VALID,0,
2008-03-17, 01:08:00,VALID,914.497,VALID,0,VALID,99.1941,VALID,0.0509425,VALID,20.3081,VALID,156,VALID,0,
2008-03-17, 01:09:00,VALID,914.492,VALID,0,VALID,99.2157,VALID,0.0339617,VALID,20.3048,VALID,156,VALID,0,
2008-03-17, 01:10:00,VALID,914.48,VALID,0,VALID,99.25,VALID,0.0679233,VALID,20.2851,VALID,156,VALID,0,
2008-03-17, 01:11:00,VALID,914.46,VALID,0,VALID,99.3301,VALID,0.0169808,VALID,20.2956,VALID,150,VALID,0,
2008-03-17, 01:12:00,VALID,914.437,VALID,0,VALID,99.3823,VALID,0.0169808,VALID,20.3021,VALID,147,VALID,0,
2008-03-17, 01:13:00,VALID,914.418,VALID,0,VALID,99.3823,VALID,0.0339617,VALID,20.3051,VALID,147,VALID,0,
2008-03-17, 01:14:00,VALID,914.394,VALID,0,VALID,99.381,VALID,0.0339617,VALID,20.3083,VALID,148,VALID,0,
2008-03-17, 01:15:00,VALID,914.388,VALID,0,VALID,99.4026,VALID,0.0339617,VALID,20.3245,VALID,142,VALID,0.47433,
2008-03-17, 01:16:00,VALID,914.38,VALID,0,VALID,99.264,VALID,0.0169808,VALID,20.35,VALID,128,VALID,0,
2008-03-17, 01:17:00,VALID,914.37,VALID,0,VALID,99.1279,VALID,0.0339617,VALID,20.3597,VALID,129,VALID,0,
2008-03-17, 01:18:00,VALID,914.36,VALID,0,VALID,99.0758,VALID,0,VALID,20.3865,VALID,127,VALID,0.00740132,
2008-03-17, 01:19:00,VALID,914.34,VALID,0,VALID,99.0249,VALID,0,VALID,20.3859,VALID,121,VALID,0,
2008-03-17, 01:20:00,VALID,914.32,VALID,0,VALID,98.9804,VALID,0,VALID,20.3924,VALID,108,VALID,0,
2008-03-17, 01:21:00,VALID,914.314,VALID,0,VALID,98.9067,VALID,0,VALID,20.3992,VALID,103,VALID,0,
2008-03-17, 01:22:00,VALID,914.286,VALID,0,VALID,98.894,VALID,0,VALID,20.3897,VALID,92,VALID,0,
2008-03-17, 01:23:00,VALID,914.282,VALID,0,VALID,98.9346,VALID,0,VALID,20.3905,VALID,100,VALID,0.0977515,
2008-03-17, 01:24:00,VALID,914.275,VALID,0,VALID,99.0389,VALID,-0.0169808,VALID,20.3602,VALID,113,VALID,0.0947266,
2008-03-17, 01:25:00,VALID,914.266,VALID,0,VALID,99.0923,VALID,0.0169808,VALID,20.3543,VALID,120,VALID,0.285974,
2008-03-17, 01:26:00,VALID,914.258,VALID,0,VALID,99.1585,VALID,0,VALID,20.3513,VALID,124,VALID,0,
2008-03-17, 01:27:00,VALID,914.242,VALID,0,VALID,99.2322,VALID,0.0339617,VALID,20.3343,VALID,129,VALID,0,
2008-03-17, 01:28:00,VALID,914.219,VALID,0,VALID,99.2487,VALID,0,VALID,20.3278,VALID,128,VALID,0,
2008-03-17, 01:29:00,VALID,914.192,VALID,0,VALID,99.2793,VALID,-0.0339617,VALID,20.328,VALID,150,VALID,0.59747,
2008-03-17, 01:30:00,VALID,914.178,VALID,0,VALID,99.3276,VALID,0,VALID,20.318,VALID,161,VALID,0.314174,
2008-03-17, 01:31:00,VALID,914.178,VALID,0,VALID,99.3835,VALID,0,VALID,20.3088,VALID,156,VALID,0.957617,
2008-03-17, 01:32:00,VALID,914.15,VALID,0,VALID,99.5018,VALID,0.0169808,VALID,20.2926,VALID,162,VALID,1.22587,
2008-03-17, 01:33:00,VALID,914.114,VALID,0,VALID,99.6671,VALID,0,VALID,20.2634,VALID,167,VALID,1.0692,
2008-03-17, 01:34:00,VALID,914.092,VALID,0,VALID,99.8451,VALID,0.0169808,VALID,20.2274,VALID,154,VALID,1.0207,
2008-03-17, 01:35:00,VALID,914.081,VALID,0,VALID,99.9954,VALID,0.0169808,VALID,20.188,VALID,153,VALID,0.869234,
2008-03-17, 01:36:00,VALID,914.063,VALID,0,VALID,100,VALID,0.0169808,VALID,20.1755,VALID,137,VALID,0.87035,
2008-03-17, 01:37:00,VALID,914.076,VALID,0,VALID,100,VALID,0,VALID,20.1793,VALID,144,VALID,1.04306,
2008-03-17, 01:38:00,VALID,914.089,VALID,0,VALID,100,VALID,0,VALID,20.1853,VALID,131,VALID,1.22402,
2008-03-17, 01:39:00,VALID,914.077,VALID,0,VALID,99.9903,VALID,0,VALID,20.2177,VALID,133,VALID,1.19665,
2008-03-17, 01:40:00,VALID,914.059,VALID,0,VALID,99.8489,VALID,0,VALID,20.2666,VALID,125,VALID,1.07608,
2008-03-17, 01:41:00,VALID,914.043,VALID,0,VALID,99.676,VALID,0,VALID,20.2856,VALID,138,VALID,0.923473,
2008-03-17, 01:42:00,VALID,914.027,VALID,0,VALID,99.4878,VALID,0,VALID,20.3153,VALID,165,VALID,1.07013,
2008-03-17, 01:43:00,VALID,914.039,VALID,0,VALID,99.3492,VALID,0,VALID,20.3348,VALID,160,VALID,0.883185,
2008-03-17, 01:44:00,VALID,914.035,VALID,0,VALID,99.1979,VALID,0.0169808,VALID,20.3445,VALID,150,VALID,1.4351,
2008-03-17, 01:45:00,VALID,914.019,VALID,0,VALID,99.1305,VALID,0,VALID,20.3643,VALID,161,VALID,0.753729,
2008-03-17, 01:46:00,VALID,914.013,VALID,0,VALID,99.0745,VALID,0,VALID,20.3643,VALID,160,VALID,1.37427,
2008-03-17, 01:47:00,VALID,913.987,VALID,0,VALID,99.0834,VALID,0.0169808,VALID,20.3575,VALID,164,VALID,1.11607,
2008-03-17, 01:48:00,VALID,913.972,VALID,0,VALID,99.1127,VALID,-0.0169808,VALID,20.3615,VALID,155,VALID,0.843941,
2008-03-17, 01:49:00,VALID,913.974,VALID,0,VALID,99.1546,VALID,-0.0849042,VALID,20.3626,VALID,146,VALID,0.682706,
2008-03-17, 01:50:00,VALID,913.967,VALID,0,VALID,99.1674,VALID,-0.101885,VALID,20.3523,VALID,158,VALID,1.01024,
2008-03-17, 01:51:00,VALID,913.949,VALID,0,VALID,99.1521,VALID,-0.118866,VALID,20.3423,VALID,163,VALID,1.0332,
2008-03-17, 01:52:00,VALID,913.942,VALID,0,VALID,99.1623,VALID,-0.0679233,VALID,20.359,VALID,136,VALID,1.3125,
2008-03-17, 01:53:00,VALID,913.937,VALID,0,VALID,99.1267,VALID,-0.0849042,VALID,20.3685,VALID,140,VALID,1.16051,
2008-03-17, 01:54:00,VALID,913.928,VALID,0,VALID,99.0733,VALID,-0.0509425,VALID,20.3683,VALID,144,VALID,1.14766,
2008-03-17, 01:55:00,VALID,913.91,VALID,0,VALID,99.044,VALID,-0.0679233,VALID,20.381,VALID,137,VALID,0.986151,
2008-03-17, 01:56:00,VALID,913.887,VALID,0,VALID,98.9486,VALID,-0.0849042,VALID,20.3905,VALID,140,VALID,1.32637,
2008-03-17, 01:57:00,VALID,913.846,VALID,0,VALID,98.8685,VALID,-0.0679233,VALID,20.4232,VALID,148,VALID,1.23615,
2008-03-17, 01:58:00,VALID,913.835,VALID,0,VALID,98.7007,VALID,-0.0509425,VALID,20.4456,VALID,141,VALID,1.54512,
2008-03-17, 01:59:00,VALID,913.817,VALID,0,VALID,98.5621,VALID,-0.0679233,VALID,20.4719,VALID,133,VALID,1.76701,
2008-03-17, 02:00:00,VALID,913.812,VALID,0,VALID,98.4387,VALID,-0.0509425,VALID,20.4911,VALID,130,VALID,1.89364,
2008-03-17, 02:01:00,VALID,913.8,VALID,0,VALID,98.2938,VALID,-0.0849042,VALID,20.5203,VALID,133,VALID,2.19103,
2008-03-17, 02:02:00,VALID,913.801,VALID,0,VALID,98.014,VALID,-0.0679233,VALID,20.569,VALID,134,VALID,1.97532,
2008-03-17, 02:03:00,VALID,913.784,VALID,0,VALID,97.7406,VALID,-0.0339617,VALID,20.6274,VALID,123,VALID,1.54972,
2008-03-17, 02:04:00,VALID,913.763,VALID,0,VALID,97.5524,VALID,-0.0509425,VALID,20.6504,VALID,119,VALID,1.20799,
2008-03-17, 02:05:00,VALID,913.761,VALID,0,VALID,97.5384,VALID,-0.0509425,VALID,20.6501,VALID,127,VALID,1.33921,
2008-03-17, 02:06:00,VALID,913.745,VALID,0,VALID,97.5677,VALID,-0.0339617,VALID,20.6474,VALID,129,VALID,2.00465,
2008-03-17, 02:07:00,VALID,913.725,VALID,0,VALID,97.6681,VALID,-0.0339617,VALID,20.6274,VALID,141,VALID,1.87043,
2008-03-17, 02:08:00,VALID,913.701,VALID,0,VALID,97.7432,VALID,-0.0679233,VALID,20.6179,VALID,141,VALID,1.62713,
2008-03-17, 02:09:00,VALID,913.686,VALID,0,VALID,97.7749,VALID,-0.0679233,VALID,20.6014,VALID,143,VALID,1.85429,
2008-03-17, 02:10:00,VALID,913.669,VALID,0,VALID,97.7482,VALID,-0.0339617,VALID,20.6144,VALID,127,VALID,1.28544,
2008-03-17, 02:11:00,VALID,913.654,VALID,0,VALID,97.7088,VALID,-0.101885,VALID,20.6279,VALID,118,VALID,1.30104,
2008-03-17, 02:12:00,VALID,913.632,VALID,0,VALID,97.7063,VALID,-0.0509425,VALID,20.6274,VALID,98,VALID,1.39343,
2008-03-17, 02:13:00,VALID,913.613,VALID,0,VALID,97.6859,VALID,-0.0509425,VALID,20.6247,VALID,131,VALID,2.02649,
2008-03-17, 02:14:00,VALID,913.607,VALID,0,VALID,97.541,VALID,-0.0509425,VALID,20.6276,VALID,121,VALID,1.65664,
2008-03-17, 02:15:00,VALID,913.598,VALID,0,VALID,97.3528,VALID,-0.0339617,VALID,20.6633,VALID,114,VALID,1.3995,
2008-03-17, 02:16:00,VALID,913.588,VALID,0,VALID,97.2498,VALID,-0.0339617,VALID,20.6893,VALID,130,VALID,1.34356,
2008-03-17, 02:17:00,VALID,913.577,VALID,0,VALID,97.162,VALID,-0.0509425,VALID,20.6961,VALID,142,VALID,1.34666,
2008-03-17, 02:18:00,VALID,913.577,VALID,0,VALID,97.0743,VALID,-0.0169808,VALID,20.7147,VALID,136,VALID,0.744141,
2008-03-17, 02:19:00,VALID,913.579,VALID,0,VALID,97.0222,VALID,0.0849042,VALID,20.711,VALID,123,VALID,1.492,
2008-03-17, 02:20:00,VALID,913.593,VALID,0,VALID,97.0717,VALID,0.0509425,VALID,20.6975,VALID,134,VALID,1.52562,
2008-03-17, 02:21:00,VALID,913.585,VALID,0,VALID,97.1277,VALID,0.0169808,VALID,20.6945,VALID,136,VALID,1.43623,
2008-03-17, 02:22:00,VALID,913.555,VALID,0,VALID,97.1519,VALID,0.0509425,VALID,20.678,VALID,136,VALID,1.61156,
2008-03-17, 02:23:00,VALID,913.553,VALID,0,VALID,97.1353,VALID,0.0339617,VALID,20.6745,VALID,134,VALID,1.58155,
2008-03-17, 02:24:00,VALID,913.537,VALID,0,VALID,97.1201,VALID,0.0509425,VALID,20.6948,VALID,140,VALID,1.42667,
2008-03-17, 02:25:00,VALID,913.532,VALID,0,VALID,97.1353,VALID,0.0169808,VALID,20.665,VALID,127,VALID,1.56831,
2008-03-17, 02:26:00,VALID,913.518,VALID,0,VALID,97.1887,VALID,0.0169808,VALID,20.6588,VALID,122,VALID,1.24592,
2008-03-17, 02:27:00,VALID,913.517,VALID,0,VALID,97.2549,VALID,0.0339617,VALID,20.6323,VALID,127,VALID,1.2044,
2008-03-17, 02:28:00,VALID,913.501,VALID,0,VALID,97.3718,VALID,0.0339617,VALID,20.6131,VALID,123,VALID,1.11824,
2008-03-17, 02:29:00,VALID,913.495,VALID,0,VALID,97.4634,VALID,0.0509425,VALID,20.6096,VALID,134,VALID,1.22923,
2008-03-17, 02:30:00,VALID,913.485,VALID,0,VALID,97.4698,VALID,0.0509425,VALID,20.6163,VALID,146,VALID,1.18672,
2008-03-17, 02:31:00,VALID,913.465,VALID,0,VALID,97.3579,VALID,0.0679233,VALID,20.6358,VALID,139,VALID,0.540923,
2008-03-17, 02:32:00,VALID,913.461,VALID,0,VALID,97.3273,VALID,0.0679233,VALID,20.6291,VALID,139,VALID,0.537997,
2008-03-17, 02:33:00,VALID,913.456,VALID,0,VALID,97.349,VALID,-0.0169808,VALID,20.6396,VALID,140,VALID,0.561942,
2008-03-17, 02:34:00,VALID,913.467,VALID,0,VALID,97.3159,VALID,-0.0339617,VALID,20.6469,VALID,142,VALID,0.00213068,
2008-03-17, 02:35:00,VALID,913.445,VALID,0,VALID,97.3362,VALID,-0.0339617,VALID,20.6404,VALID,168,VALID,0,
2008-03-17, 02:36:00,VALID,913.434,VALID,0,VALID,97.4214,VALID,-0.0509425,VALID,20.6471,VALID,167,VALID,0,
2008-03-17, 02:37:00,VALID,913.412,VALID,0,VALID,97.4927,VALID,-0.0679233,VALID,20.6339,VALID,165,VALID,0,
2008-03-17, 02:38:00,VALID,913.378,VALID,0,VALID,97.5397,VALID,-0.0169808,VALID,20.6404,VALID,173,VALID,0,
2008-03-17, 02:39:00,VALID,913.386,VALID,0,VALID,97.5422,VALID,-0.0509425,VALID,20.6376,VALID,173,VALID,0.0238009,
2008-03-17, 02:40:00,VALID,913.389,VALID,0,VALID,97.5422,VALID,-0.0679233,VALID,20.6309,VALID,173,VALID,0.00195313,
2008-03-17, 02:41:00,VALID,913.376,VALID,0,VALID,97.5918,VALID,-0.0339617,VALID,20.6374,VALID,172,VALID,0,
2008-03-17, 02:42:00,VALID,913.368,VALID,0,VALID,97.6796,VALID,-0.0339617,VALID,20.6544,VALID,172,VALID,0.00106534,
2008-03-17, 02:43:00,VALID,913.35,VALID,0,VALID,97.6465,VALID,-0.0169808,VALID,20.6374,VALID,172,VALID,0.00228659,
2008-03-17, 02:44:00,VALID,913.348,VALID,0,VALID,97.6834,VALID,-0.0509425,VALID,20.6306,VALID,172,VALID,0,
2008-03-17, 02:45:00,VALID,913.325,VALID,0,VALID,97.6427,VALID,-0.0509425,VALID,20.6276,VALID,172,VALID,0,
2008-03-17, 02:46:00,VALID,913.32,VALID,0,VALID,97.6694,VALID,-0.0509425,VALID,20.6284,VALID,166,VALID,0.275112,
2008-03-17, 02:47:00,VALID,913.315,VALID,0,VALID,97.7622,VALID,-0.0509425,VALID,20.6014,VALID,154,VALID,0.718559,
2008-03-17, 02:48:00,VALID,913.298,VALID,0,VALID,97.8627,VALID,-0.0339617,VALID,20.5819,VALID,138,VALID,0.0495384,
2008-03-17, 02:49:00,VALID,913.27,VALID,0,VALID,97.9542,VALID,0.0169808,VALID,20.5447,VALID,159,VALID,0.0680043,
2008-03-17, 02:50:00,VALID,913.25,VALID,0,VALID,98.0394,VALID,0.0169808,VALID,20.5457,VALID,138,VALID,0,
2008-03-17, 02:51:00,VALID,913.233,VALID,0,VALID,98.0789,VALID,0,VALID,20.5263,VALID,136,VALID,0,
2008-03-17, 02:52:00,VALID,913.213,VALID,0,VALID,98.1335,VALID,0,VALID,20.513,VALID,124,VALID,0.199574,
2008-03-17, 02:53:00,VALID,913.213,VALID,0,VALID,98.1869,VALID,0,VALID,20.4933,VALID,113,VALID,0.189405,
2008-03-17, 02:54:00,VALID,913.209,VALID,0,VALID,98.248,VALID,0.0339617,VALID,20.4803,VALID,123,VALID,0,
2008-03-17, 02:55:00,VALID,913.209,VALID,0,VALID,98.3497,VALID,0.0509425,VALID,20.4573,VALID,160,VALID,0.401042,
2008-03-17, 02:56:00,VALID,913.204,VALID,0,VALID,98.4387,VALID,0.0339617,VALID,20.4408,VALID,169,VALID,1.40592,
2008-03-17, 02:57:00,VALID,913.184,VALID,0,VALID,98.5684,VALID,0.0509425,VALID,20.4481,VALID,162,VALID,1.2846,
2008-03-17, 02:58:00,VALID,913.192,VALID,0,VALID,98.6053,VALID,0.0169808,VALID,20.4443,VALID,162,VALID,1.54142,
2008-03-17, 02:59:00,VALID,913.208,VALID,0,VALID,98.6244,VALID,0.0169808,VALID,20.4481,VALID,162,VALID,1.15399,
2008-03-17, 03:00:00,VALID,913.206,VALID,0,VALID,98.6002,VALID,0.0339617,VALID,20.4573,VALID,152,VALID,0.78869,
2008-03-17, 03:01:00,VALID,913.207,VALID,0,VALID,98.5735,VALID,0.0169808,VALID,20.4671,VALID,130,VALID,0.0529297,
2008-03-17, 03:02:00,VALID,913.197,VALID,0,VALID,98.5392,VALID,0.0509425,VALID,20.4771,VALID,145,VALID,0.456364,
2008-03-17, 03:03:00,VALID,913.218,VALID,0,VALID,98.4883,VALID,0.0169808,VALID,20.4768,VALID,146,VALID,1.23177,
2008-03-17, 03:04:00,VALID,913.219,VALID,0,VALID,98.4375,VALID,0.0679233,VALID,20.49,VALID,145,VALID,0.73273,
2008-03-17, 03:05:00,VALID,913.228,VALID,0,VALID,98.3929,VALID,0,VALID,20.5163,VALID,147,VALID,0.795732,
2008-03-17, 03:06:00,VALID,913.225,VALID,0,VALID,98.2938,VALID,0,VALID,20.5355,VALID,135,VALID,0.955305,
2008-03-17, 03:07:00,VALID,913.245,VALID,0,VALID,98.2607,VALID,0.0169808,VALID,20.5425,VALID,142,VALID,0.910442,
2008-03-17, 03:08:00,VALID,913.248,VALID,0,VALID,98.2454,VALID,0,VALID,20.549,VALID,157,VALID,0.593932,
2008-03-17, 03:09:00,VALID,913.264,VALID,0,VALID,98.2416,VALID,0,VALID,20.552,VALID,158,VALID,0.610709,
2008-03-17, 03:10:00,VALID,913.26,VALID,0,VALID,98.2976,VALID,0.0509425,VALID,20.5452,VALID,148,VALID,0.797286,
2008-03-17, 03:11:00,VALID,913.246,VALID,0,VALID,98.4133,VALID,0.0339617,VALID,20.516,VALID,157,VALID,0.870584,
2008-03-17, 03:12:00,VALID,913.241,VALID,0,VALID,98.5837,VALID,0.0169808,VALID,20.4865,VALID,122,VALID,0.257267,
2008-03-17, 03:13:00,VALID,913.25,VALID,0,VALID,98.7414,VALID,0.0169808,VALID,20.4676,VALID,146,VALID,0.906808,
2008-03-17, 03:14:00,VALID,913.253,VALID,0,VALID,98.8126,VALID,0,VALID,20.4346,VALID,133,VALID,1.45331,
2008-03-17, 03:15:00,VALID,913.254,VALID,0,VALID,98.8329,VALID,0.0169808,VALID,20.4481,VALID,131,VALID,0.981136,
2008-03-17, 03:16:00,VALID,913.26,VALID,0,VALID,98.8698,VALID,0.0339617,VALID,20.4446,VALID,138,VALID,1.11719,
2008-03-17, 03:17:00,VALID,913.275,VALID,0,VALID,98.8685,VALID,0.0169808,VALID,20.4479,VALID,121,VALID,1.19989,
2008-03-17, 03:18:00,VALID,913.286,VALID,0,VALID,98.9003,VALID,0,VALID,20.4446,VALID,124,VALID,1.44442,
2008-03-17, 03:19:00,VALID,913.276,VALID,0,VALID,98.9372,VALID,0.0169808,VALID,20.4384,VALID,132,VALID,1.20725,
2008-03-17, 03:20:00,VALID,913.282,VALID,0,VALID,98.9728,VALID,0,VALID,20.4356,VALID,132,VALID,1.14933,
2008-03-17, 03:21:00,VALID,913.272,VALID,0,VALID,99.0402,VALID,0.0169808,VALID,20.4292,VALID,132,VALID,1.49809,
2008-03-17, 03:22:00,VALID,913.278,VALID,0,VALID,99.1241,VALID,0,VALID,20.4094,VALID,139,VALID,1.03247,
2008-03-17, 03:23:00,VALID,913.283,VALID,0,VALID,99.208,VALID,0.0169808,VALID,20.3999,VALID,132,VALID,1.48047,
2008-03-17, 03:24:00,VALID,913.282,VALID,0,VALID,99.3365,VALID,0,VALID,20.3805,VALID,121,VALID,1.44931,
2008-03-17, 03:25:00,VALID,913.267,VALID,0,VALID,99.4547,VALID,0,VALID,20.357,VALID,129,VALID,1.45653,
2008-03-17, 03:26:00,VALID,913.262,VALID,0,VALID,99.5755,VALID,0,VALID,20.3515,VALID,125,VALID,1.55164,
2008-03-17, 03:27:00,VALID,913.253,VALID,0,VALID,99.6798,VALID,0,VALID,20.3313,VALID,133,VALID,1.94029,
2008-03-17, 03:28:00,VALID,913.242,VALID,0,VALID,99.7269,VALID,-0.0339617,VALID,20.338,VALID,137,VALID,1.58281,
2008-03-17, 03:29:00,VALID,913.233,VALID,0,VALID,99.6887,VALID,0.0169808,VALID,20.344,VALID,128,VALID,1.55321,
2008-03-17, 03:30:00,VALID,913.223,VALID,0,VALID,99.676,VALID,0,VALID,20.3607,VALID,125,VALID,1.32187,
2008-03-17, 03:31:00,VALID,913.201,VALID,0,VALID,99.634,VALID,0.0339617,VALID,20.3637,VALID,139,VALID,1.47014,
2008-03-17, 03:32:00,VALID,913.191,VALID,0,VALID,99.5832,VALID,0,VALID,20.37,VALID,148,VALID,1.26469,
2008-03-17, 03:33:00,VALID,913.185,VALID,0,VALID,99.5196,VALID,0,VALID,20.3767,VALID,144,VALID,1.40316,
2008-03-17, 03:34:00,VALID,913.192,VALID,0,VALID,99.4636,VALID,0,VALID,20.38,VALID,124,VALID,1.36944,
2008-03-17, 03:35:00,VALID,913.188,VALID,0,VALID,99.4636,VALID,0.0169808,VALID,20.3867,VALID,133,VALID,1.4798,
2008-03-17, 03:36:00,VALID,913.2,VALID,0,VALID,99.4573,VALID,0,VALID,20.3997,VALID,130,VALID,0.914789,
2008-03-17, 03:37:00,VALID,913.203,VALID,0,VALID,99.3988,VALID,0,VALID,20.4032,VALID,128,VALID,1.29836,
2008-03-17, 03:38:00,VALID,913.188,VALID,0,VALID,99.3505,VALID,0.0169808,VALID,20.3894,VALID,133,VALID,1.45573,